www.pogodaiklimat.ru

Погода и климат >> Архив погоды >> Индонезия >> Санана


ПОГОДА на Санане

  • Прогноз погоды на Санане
  • Монитор погоды на Санане

АРХИВ ПОГОДЫ на Санане

Время (UTC), дата Ветер
(напр.,м/с)
 
Видим.   Явления Облачность Т
(С)
Тd
(С)
f
(%)
Тe
(С)
Тes
(С)
Комфортность P
(гПа)
Po
(гПа)
Тmin
(С)
Tmax
(С)
R
(мм)
R24
(мм)
S
(см)
18 16.07 З 1 8000 м осадки на расстоянии 10/4 540 м
[Cu med, cong As trans Ci fib]
+24.6 +23.0 91 +33 +33 очень
душно
1010.0 1009.8
00 17.07 ЮВ 2 7000 м осадки на расстоянии 9/5 500 м
[Cb cap As op Ci fib]
+25.8 +23.7 88 +35 +37 очень
душно
1011.3 1011.0 0.2 9
03 17.07 Ю 3 8000 м осадки на расстоянии 9/5 500 м
[Cb cap As op Ci fib]
+26.6 +24.2 87 +37 +42 очень
душно
1010.2 1010.0 0.0
06 17.07 Ю 5 8000 м осадки на расстоянии 9/5 500 м
[Cb cap As op Ci fib]
+27.0 +23.4 81 +37 +39 очень
душно
1008.6 1008.4
09 17.07 ЮВ 3 8000 м осадки на расстоянии 9/5 500 м
[Cb cap As op Ci fib]
+27.2 +23.7 81 +37 +37 очень
душно
1008.4 1008.2
12 17.07 ЮВ 3 7000 м 9/5 500 м
[Cb cap As op Ci fib]
+27.2 +23.7 81 +37 +37 очень
душно
1010.0 1009.8 +27.6
15 17.07 ЮВ 3 7000 м 9/4 570 м
[Cu med, cong As op Ci fib]
+27.0 +23.1 79 +36 +36 очень
душно
1010.9 1010.7
18 17.07 ЮВ 4 7000 м 9/4 570 м
[Cu med, cong As op Ci fib]
+26.6 +23.0 81 +36 +36 очень
душно
1009.8 1009.6
00 18.07 СВ 3 7000 м осадки на расстоянии 10/5 500 м
[Cb cap As op Ci fib]
+26.2 +22.6 81 +35 +36 очень
душно
1011.6 1011.4 0.2
06 18.07 штиль 0 8000 м осадки на расстоянии 9/5 500 м
[Cb cap Ac trans Ci fib]
+27.6 +23.2 77 +37 +42 очень
душно
1008.9 1008.6 2
09 18.07 СВ 1 9000 м 8/4 570 м
[Cu med, cong Ac trans Ci fib]
+28.0 +23.6 77 +38 +38 очень
душно
1008.5 1008.3
12 18.07 В 4 8000 м осадки на расстоянии 9/4 570 м
[Cu med, cong Ac trans Ci fib]
+27.2 +24.2 84 +38 +38 очень
душно
1010.2 1010.0 +28.2
15 18.07 В 1 9000 м 9/4 570 м
[Cu med, cong Ac trans Ci fib]
+26.8 +24.7 88 +38 +38 очень
душно
1010.7 1010.5
18 18.07 В 2 10 км 6/4 570 м
[Cu med, cong Ac trans Ci fib]
+26.8 +24.1 85 +37 +37 очень
душно
1010.1 1009.9
00 19.07 В 1 9000 м 8/4 570 м
[Cu med, cong Ac trans Ci fib]
+28.2 +24.4 80 +40 +43 очень
душно
1011.0 1010.8 2
03 19.07 В 1 9000 м 8/4 570 м
[Cu med, cong Ac trans Ci fib]
+30.0 +24.2 71 +42 +51 опасность
перегрева
1010.5 1010.2
06 19.07 ЮВ 1 9000 м 8/4 570 м
[Cu med, cong Ac trans Ci fib]
+30.2 +24.1 70 +42 +48 опасность
перегрева
1008.7 1008.5
09 19.07 Ю 1 9000 м 8/4 570 м
[Cu med, cong Ac trans Ci fib]
+29.4 +24.2 74 +41 +41 опасность
перегрева
1008.9 1008.7
12 19.07 штиль 0 9000 м 8/4 570 м
[Cu med, cong Ac trans Ci fib]
+26.8 +24.1 85 +37 +37 очень
душно
1010.5 1010.3 +30.4
15 19.07 штиль 0 9000 м 8/4 570 м
[Cu med, cong Ac trans Ci fib]
+26.0 +23.9 88 +36 +36 очень
душно
1011.0 1010.7
18 19.07 штиль 0 8000 м 8/4 570 м
[Cu med, cong Ac trans Ci fib]
+26.0 +24.2 90 +36 +36 очень
душно
1009.9 1009.7
00 20.07 СВ 1 10 км 5/4 570 м
[Cu med, cong Ac trans Ci fib]
+28.6 +23.9 76 +40 +44 очень
душно
1011.9 1011.6 0.0
03 20.07 В 1 10 км 5/3 570 м
[Cu med, cong Ac trans Ci fib]
+29.6 +24.7 75 +42 +55 опасность
перегрева
1011.3 1011.1
06 20.07 В 1 10 км 6/4 540 м
[Cu med, cong Ac trans Ci fib]
+30.6 +24.3 69 +43 +50 опасность
перегрева
1009.4 1009.2
09 20.07 В 1 10 км 8/4 540 м
[Cu med, cong Ac trans Ci fib]
+29.6 +24.4 74 +42 +42 опасность
перегрева
1009.5 1009.2
12 20.07 В 3 8000 м 8/4 540 м
[Cu med, cong Ac trans Ci fib]
+27.6 +24.1 81 +38 +38 очень
душно
1010.5 1010.2 +30.6
15 20.07 В 2 8000 м 8/4 540 м
[Cu med, cong Ac trans Ci fib]
+27.2 +24.0 83 +38 +38 очень
душно
1010.8 1010.6
18 20.07 В 2 8000 м 8/4 540 м
[Cu med, cong Ac trans Ci fib]
+26.6 +22.7 79 +35 +35 очень
душно
1010.0 1009.8
00 21.07 В 2 10 км 6/3 540 м
[Cu med, cong Ac trans Ci fib]
+27.8 +22.8 74 +37 +40 очень
душно
1011.1 1010.8 0.0
03 21.07 СВ 2 10 км 4/3 540 м
[Cu med, cong Ac trans Ci fib]
+29.2 +23.4 71 +40 +53 опасность
солнечного
удара
1010.3 1010.1
06 21.07 СВ 2 10 км 4/3 540 м
[Cu med, cong Ac trans Ci fib]
+29.8 +21.1 60 +37 +46 очень
душно
1008.5 1008.2
09 21.07 СВ 2 10 км 4/3 540 м
[Cu med, cong Ac trans Ci fib]
+29.2 +22.4 67 +38 +39 очень
душно
1008.7 1008.5
12 21.07 СЗ 1 9000 м 6/3 570 м
[Cu med, cong Ac trans Ci fib]
+26.0 +22.7 82 +34 +34 очень
душно
1010.1 1009.9 +30.2
15 21.07 З 1 9000 м 6/3 570 м
[Cu med, cong Ac trans Ci fib]
+24.6 +22.4 88 +32 +32 очень
душно
1010.3 1010.1
18 21.07 штиль 0 9000 м 6/3 570 м
[Cu med, cong Ac trans Ci fib]
+25.0 +22.6 87 +33 +33 очень
душно
1009.1 1008.9
00 22.07 штиль 0 8000 м осадки на расстоянии 9/5 500 м
[Cb cap As op Ci fib]
+26.0 +23.6 87 +35 +38 очень
душно
1010.7 1010.5
03 22.07 СВ 3 8000 м 9/4 570 м
[Cu med, cong Ac trans Ci fib]
+29.2 +24.0 74 +41 +46 опасность
перегрева
1010.0 1009.8
06 22.07 СВ 2 9000 м 6/4 570 м
[Cu med, cong Ac trans Ci fib]
+30.0 +23.3 67 +40 +47 очень
душно
1007.8 1007.6
09 22.07 штиль 0 10 км 6/4 570 м
[Cu med, cong Ac trans Ci fib]
+29.0 +23.1 71 +39 +39 очень
душно
1008.0 1007.7
12 22.07 штиль 0 9000 м 9/4 570 м
[Cu med, cong Ac trans Ci fib]
+26.8 +23.2 81 +36 +36 очень
душно
1009.6 1009.4 +30.2
15 22.07 штиль 0 7000 м в посл. час дождь 9/5 500 м
[Cb cap As op Ci fib]
+25.2 +23.7 91 +34 +34 очень
душно
1010.0 1009.8 9
18 22.07 З 1 7000 м в посл. час дождь 10/5 480 м
[Cb cap As op Ci fib]
+24.2 +22.9 92 +32 +32 очень
душно
1009.9 1009.7 21
00 23.07 ЮЗ 1 8000 м осадки на расстоянии 9/5 500 м
[Cb cap Ac trans Ci fib]
+25.6 +23.5 88 +35 +37 очень
душно
1011.2 1010.9 30
06 23.07 С 2 8000 м слаб. дождь 9/5 500 м
[Cb cap Ac trans Ci fib]
+26.2 +22.9 82 +35 +39 очень
душно
1009.3 1009.1 1
09 23.07 В 3 8000 м в посл. час дождь 9/4 500 м
[Cu med, cong Ac As Ci fib]
+26.4 +22.8 81 +35 +35 очень
душно
1009.8 1009.6
12 23.07 СЗ 2 8000 м осадки на расстоянии 9/4 500 м
[Cb cap Ac As Ci fib]
+24.8 +22.6 88 +33 +33 очень
душно
1011.6 1011.4 +27.8
15 23.07 З 1 8000 м осадки на расстоянии 9/5 500 м
[Cb cap Ac As Ci fib]
+23.6 +21.4 87 +30 +30 очень
душно
1011.8 1011.6

 

Местоположение метеостанции Санана (Индонезия): широта -2.08 долгота 126.00 высота над уровнем моря 2 м.

В архиве по умолчанию представлена погода на Санане за последнюю неделю. Архивные данные за месяц целиком и за предыдущие месяцы, начиная с января 2011 года, Вы можете получить, выбрав интересующий диапазон дат из раскрывающегося списка и нажав кнопку "Ввод!".


*Определитесь, кто Вы:
робот инопланетянин человек

Внимание! Время в таблицах - всемирное. Для получения местного времени необходимо прибавить поправку, которая равна 9 ч.

Смотрите также архив погоды в соседних городах и на ближайших метеорологических станциях:

Погода в Тауне (Индонезия) (177 км)
Погода в Намлеа (Индонезия) (177 км)
Погода в Лабухе (Индонезия) (232 км)
Погода в Амбоне (Индонезия) (293 км)
Погода в Амахаи (Индонезия) (350 км)
Погода в Тернате (Индонезия) (351 км)
Погода в Лувуке (Индонезия) (381 км)
Погода в Битунге (Индонезия) (401 км)
Погода в Менадо (Индонезия) (419 км)
Погода в Горонтало (Индонезия) (436 км)

Пояснения к столбцам:

Ветер - указаны скорость ветра в м/с - средняя за 10 мин, порывы в срок и между сроками (в фигурных скобках) и направление, откуда дует ветер: С - северный, СВ - северо-восточный, В - восточный, ЮВ - юго-восточный, Ю - южный, ЮЗ - юго-западный, З - западный, СЗ - северо-западный.
Видимость - горизонтальная дальность видимости в метрах или километрах. При видимости от 1 до 10 км при отсутствии осадков обычно наблюдается дымка, при ухудшении видимости до 1 км и менее - туман. В сухую погоду видимость может ухудшаться дымом, пылью или мглою.
Явления - указаны атмосферные явления, наблюдавшиеся в срок или в последний час перед сроком; фигурными скобками обозначены явления, наблюдавшиеся между сроками (за 1-3 часа до срока); квадратными скобками обозначены град или гололедные отложения с указанием их диаметра в мм.
Облачность - указаны через наклонную черту общая и нижняя облачность в баллах и высота нижней границы облаков в метрах; квадратными скобками обозначены формы облаков: Ci - перистые, Cs - перисто-слоистые, Cc - перисто-кучевые, Ac - высококучевые, As - высокослоистые, Sc - слоисто-кучевые, Ns - слоисто-дождевые, Cu - кучевые, Cb - кучево-дождевые. Подробнее классификацию облаков см. в Атласе облаков (PDF).
T - Температура воздуха - температура, измеренная на высоте 2 м над землей.
Td - Температура точки росы - температура, при понижении до которой содержащийся в воздухе водяной пар достигнет насыщения.
f - Относительная влажность воздуха - влажноcть воздуха, измеренная на высоте 2 м над землей.
Te - Эффективная температура - температура, которую ощущает одетый по сезону человек в тени. Характеристика душности погоды. При расчете учитывается влияние влажности воздуха и скорости ветра на теплоощущения человека.
Tes - Эффективная температура на солнце - температура, которую ощущает человек, с поправкой на солнечный нагрев. Характеристика знойности погоды. Зависит от высоты солнца над горизонтом, облачности и скорости ветра. Ночью, в пасмурную погоду, а также при ветре 12 м/с и более поправка равна нулю.
P - Атмосферное давление - приведенное к уровню моря атмосферное давление.
Po - Атмосферное давление - измеренное на уровне метеостанции атмосферное давление.
Tmin - Минимальная температура - минимум температуры воздуха на высоте 2 м над землей.
Tmax - Максимальная температура - максимум температуры воздуха на высоте 2 м над землей.
R - Количество осадков - Количество выпавших осадков за период времени, мм. При наведении курсора мыши на число - период времени, за который выпало указанное количество осадков.
R24 - Количество осадков - Количество выпавших осадков за 24 часа, мм.
S - Снежный покров - Высота снежного покрова, см. При наведении курсора мыши на число - состояние снежного покрова и степень покрытия местности в баллах.